Mount Airy, NC

11:37 AM EDT on June 23, 2017 (GMT -0400)
Mount Airy-Surry County

Weather History for KMWK - March, 2013

Change the Weather History Date:

Friday, March 22, 2013

  Actual Average (KINT) Record (KINT)
Temperature  
Mean Temperature 38 °F -  
Max Temperature 54 °F 59 °F 84 °F (1968)
Min Temperature 21 °F 39 °F 18 °F (1986)
Degree Days  
Heating Degree Days 28    
Moisture  
Dew Point 8 °F    
Average Humidity 34    
Maximum Humidity 60    
Minimum Humidity 13    
Precipitation  
Precipitation 0.00 in - - ()
Sea Level Pressure  
Sea Level Pressure 29.97 in    
Wind  
Wind Speed 3 mph (WNW)    
Max Wind Speed 8 mph    
Max Gust Speed -    
Visibility 10 miles    
Events      
Averages and records for this station are not official NWS values.
T = Trace of Precipitation, MM = Missing Value Source: NWS Daily Summary

Daily Weather History Graph

Daily Weather History Graph

Search for Another Location

Airport or City:

Trip Planner

Search our weather history database for the weather conditions in past years. The results will help you decide how hot, cold, wet, or windy it might be!

Date:

Astronomy

Mar. 22, 2013 Rise Set
Actual Time 7:22 AM EDT 7:35 PM EDT
Civil Twilight 6:56 AM EDT 8:01 PM EDT
Nautical Twilight 6:26 AM EDT 8:31 PM EDT
Astronomical Twilight 5:56 AM EDT 9:02 PM EDT
Moon 3:08 PM EDT (3/22) 4:14 AM EDT (3/22)
Length of Visible Light 13h 04m
Length of Day
12h 13m
Waxing Gibbous, 77% of the Moon is Illuminated
Mar 22
Waxing Gibbous
Mar 27
Full
Apr 3
Last Quarter
Apr 10
New
Apr 18
First Quarter

Hourly Weather History & Observations

Time (EDT) Temp. Windchill Dew Point Humidity Pressure Visibility Wind Dir Wind Speed Gust Speed Precip Events Conditions
12:15 AM 25.7 °F - 7.5 °F 46% 29.96 in 10.0 mi Calm Calm - N/A   Clear
12:35 AM 25.7 °F 21.5 °F 9.0 °F 49% 29.96 in 10.0 mi NNW 3.5 mph - N/A   Clear
12:55 AM 25.3 °F 21.1 °F 10.0 °F 52% 29.97 in 10.0 mi NW 3.5 mph - N/A   Clear
1:15 AM 24.8 °F - 10.2 °F 54% 29.97 in 10.0 mi Calm Calm - N/A   Clear
1:35 AM 24.3 °F 19.9 °F 10.0 °F 55% 29.97 in 10.0 mi NNW 3.5 mph - N/A   Clear
1:55 AM 25.0 °F 20.7 °F 10.2 °F 54% 29.97 in 10.0 mi NNW 3.5 mph - N/A   Clear
2:15 AM 25.3 °F 19.7 °F 10.2 °F 53% 29.95 in 10.0 mi North 4.6 mph - N/A   Clear
2:35 AM 24.8 °F 19.1 °F 8.8 °F 51% 29.95 in 10.0 mi NNW 4.6 mph - N/A   Clear
2:55 AM 24.4 °F - 10.4 °F 55% 29.95 in 10.0 mi Calm Calm - N/A   Clear
3:15 AM 23.7 °F - 7.7 °F 51% 29.96 in 10.0 mi Calm Calm - N/A   Clear
3:35 AM 22.1 °F - 8.4 °F 56% 29.95 in 10.0 mi Calm Calm - N/A   Clear
3:55 AM 22.5 °F - 6.4 °F 50% 29.95 in 10.0 mi Calm Calm - N/A   Clear
4:15 AM 21.4 °F - 4.6 °F 49% 29.95 in 10.0 mi Calm Calm - N/A   Clear
4:35 AM 21.2 °F - 7.2 °F 55% 29.95 in 10.0 mi Calm Calm - N/A   Clear
4:55 AM 22.1 °F 17.4 °F 9.5 °F 58% 29.95 in 10.0 mi NW 3.5 mph - N/A   Clear
5:15 AM 22.8 °F 16.7 °F 10.8 °F 60% 29.96 in 10.0 mi NW 4.6 mph - N/A   Clear
5:35 AM 23.4 °F 17.4 °F 10.2 °F 57% 29.96 in 10.0 mi NW 4.6 mph - N/A   Clear
5:55 AM 23.0 °F 13.9 °F 10.8 °F 60% 29.96 in 10.0 mi NNW 8.1 mph - N/A   Clear
6:15 AM 23.5 °F 17.6 °F 11.1 °F 59% 29.97 in 10.0 mi WNW 4.6 mph - N/A   Clear
6:35 AM 22.8 °F 18.2 °F 10.9 °F 60% 29.98 in 10.0 mi West 3.5 mph - N/A   Clear
7:15 AM 23.5 °F 15.4 °F 10.6 °F 58% 30.00 in 10.0 mi WNW 6.9 mph - N/A   Clear
7:35 AM 23.9 °F 16.8 °F 10.6 °F 57% 30.00 in 10.0 mi West 5.8 mph - N/A   Clear
7:55 AM 24.1 °F 17.0 °F 11.1 °F 58% 30.01 in 10.0 mi West 5.8 mph - N/A   Clear
8:15 AM 25.7 °F 19.0 °F 12.2 °F 57% 30.02 in 10.0 mi WNW 5.8 mph - N/A   Clear
8:35 AM 29.3 °F 25.6 °F 12.0 °F 49% 30.02 in 10.0 mi WNW 3.5 mph - N/A   Clear
8:55 AM 31.3 °F 27.9 °F 11.7 °F 44% 30.03 in 10.0 mi NW 3.5 mph - N/A   Clear
9:15 AM 32.2 °F 26.7 °F 12.6 °F 44% 30.03 in 10.0 mi WSW 5.8 mph - N/A   Clear
9:35 AM 33.6 °F 29.4 °F 12.0 °F 41% 30.03 in 10.0 mi North 4.6 mph - N/A   Clear
9:55 AM 34.3 °F 29.2 °F 12.0 °F 40% 30.02 in 10.0 mi NW 5.8 mph - N/A   Clear
10:15 AM 36.9 °F 32.2 °F 13.3 °F 38% 30.03 in 10.0 mi North 5.8 mph - N/A   Clear
10:35 AM 38.3 °F 33.9 °F 12.2 °F 34% 30.02 in 10.0 mi NNW 5.8 mph - N/A   Clear
10:55 AM 39.7 °F 34.3 °F 13.1 °F 34% 30.02 in 10.0 mi NW 8.1 mph - N/A   Clear
11:15 AM 40.5 °F 35.8 °F 8.8 °F 27% 30.02 in 10.0 mi West 6.9 mph - N/A   Clear
11:35 AM 41.2 °F 36.0 °F 7.0 °F 24% 30.02 in 10.0 mi WNW 8.1 mph - N/A   Clear
11:55 AM 41.9 °F 40.0 °F 6.4 °F 23% 30.01 in 10.0 mi NNW 3.5 mph - N/A   Clear
12:15 PM 44.1 °F 39.5 °F 8.2 °F 23% 30.01 in 10.0 mi NW 8.1 mph - N/A   Clear
12:35 PM 45.1 °F 42.0 °F 8.1 °F 22% 30.00 in 10.0 mi SW 5.8 mph - N/A   Clear
12:55 PM 45.7 °F 44.4 °F 5.5 °F 19% 29.99 in 10.0 mi SW 3.5 mph - N/A   Clear
1:15 PM 47.7 °F - 6.8 °F 19% 29.98 in 10.0 mi NNW 6.9 mph - N/A   Clear
1:35 PM 48.4 °F - 7.0 °F 19% 29.97 in 10.0 mi Calm Calm - N/A   Clear
1:55 PM 50.9 °F - 8.6 °F 18% 29.97 in 10.0 mi NW 8.1 mph - N/A   Clear
2:15 PM 50.9 °F - 5.7 °F 16% 29.95 in 10.0 mi SW 5.8 mph - N/A   Clear
2:35 PM 51.4 °F - 4.5 °F 15% 29.94 in 10.0 mi WNW 6.9 mph - N/A   Clear
2:55 PM 52.3 °F - 5.5 °F 15% 29.93 in 10.0 mi SW 4.6 mph - N/A   Clear
3:15 PM 53.6 °F - 5.9 °F 15% 29.93 in 10.0 mi WSW 4.6 mph - N/A   Clear
3:35 PM 52.2 °F - 3.9 °F 14% 29.93 in 10.0 mi SSE 5.8 mph - N/A   Clear
3:55 PM 52.3 °F - 3.9 °F 14% 29.93 in 10.0 mi SSW 5.8 mph - N/A   Clear
4:15 PM 52.3 °F - 4.1 °F 14% 29.93 in 10.0 mi SSE 3.5 mph - N/A   Clear
4:35 PM 52.9 °F - 4.8 °F 14% 29.93 in 10.0 mi South 6.9 mph - N/A   Clear
4:55 PM 53.6 °F - 4.6 °F 14% 29.93 in 10.0 mi SSE 5.8 mph - N/A   Clear
5:15 PM 54.5 °F - 7.5 °F 15% 29.92 in 10.0 mi WSW 3.5 mph - N/A   Clear
5:35 PM 53.8 °F - 3.9 °F 13% 29.92 in 10.0 mi WSW 4.6 mph - N/A   Clear
5:55 PM 52.9 °F - 5.9 °F 15% 29.92 in 10.0 mi South 6.9 mph - N/A   Clear
6:15 PM 52.2 °F - 5.7 °F 15% 29.92 in 10.0 mi SSW 5.8 mph - N/A   Clear
6:35 PM 49.8 °F - 7.0 °F 18% 29.93 in 10.0 mi SSE 4.6 mph - N/A   Clear
6:55 PM 47.8 °F - 7.3 °F 19% 29.93 in 10.0 mi SSE 4.6 mph - N/A   Clear
7:15 PM 46.8 °F - 9.9 °F 22% 29.93 in 10.0 mi Calm Calm - N/A   Clear
7:35 PM 45.1 °F 43.7 °F 6.6 °F 21% 29.93 in 10.0 mi SSE 3.5 mph - N/A   Clear
7:55 PM 43.2 °F - 4.1 °F 20% 29.94 in 10.0 mi Calm Calm - N/A   Clear
8:15 PM 42.1 °F - 3.6 °F 20% 29.95 in 10.0 mi Calm Calm - N/A   Clear
8:35 PM 40.5 °F - -0.0 °F 18% 29.95 in 10.0 mi Calm Calm - N/A   Clear
8:55 PM 40.3 °F - -0.0 °F 18% 29.96 in 10.0 mi Calm Calm - N/A   Mostly Cloudy
9:15 PM 40.1 °F - 5.7 °F 24% 29.96 in 10.0 mi Calm Calm - N/A   Overcast
9:35 PM 38.8 °F - 5.4 °F 25% 29.96 in 10.0 mi Calm Calm - N/A   Mostly Cloudy
9:55 PM 36.7 °F - -1.3 °F 20% 29.97 in 10.0 mi Calm Calm - N/A   Mostly Cloudy
10:15 PM 35.6 °F - -0.4 °F 22% 29.97 in 10.0 mi Calm Calm - N/A   Scattered Clouds
10:35 PM 35.4 °F - 0.3 °F 23% 29.97 in 10.0 mi Calm Calm - N/A   Mostly Cloudy
10:55 PM 35.1 °F - 3.0 °F 26% 29.98 in 10.0 mi Calm Calm - N/A   Overcast
11:15 PM 36.1 °F - 5.9 °F 28% 29.98 in 10.0 mi Calm Calm - N/A   Overcast
11:35 PM 35.1 °F - 9.7 °F 35% 29.99 in 10.0 mi Calm Calm - N/A   Mostly Cloudy